IW7DVM-13 Weather Reports


Display with metric or nautical units.
time (UTC)temp
F
wind
direction
speed
MPH
gust
MPH
rain 1hr
in
rain 24hr
in
rain mn
in
humidity
%
barometer
mb
20260831142503 92 26 7.0 13.0 0.00 0.00 0.00 52 1007.4
20260831142003 91 36 9.0 17.0 0.00 0.00 0.00 54 1007.4
20260831141503 91 23 10.0 15.0 0.00 0.00 0.00 55 1007.4
20260831141003 91 26 10.0 15.0 0.00 0.00 0.00 53 1007.8
20260831140503 91 50 12.0 20.0 0.00 0.00 0.00 53 1007.9
20260831140003 92 114 4.0 9.0 0.00 0.00 0.00 61 1007.5
20260831135503 92 155 5.0 10.0 0.00 0.00 0.00 61 1007.0
20260831135003 91 152 5.0 13.0 0.00 0.00 0.00 61 1007.0
20260831134503 92 164 4.0 8.0 0.00 0.00 0.00 61 1007.2
20260831134003 91 181 6.0 12.0 0.00 0.00 0.00 62 1007.0
20260831133503 92 184 5.0 12.0 0.00 0.00 0.00 61 1006.7
20260831133003 91 184 5.0 10.0 0.00 0.00 0.00 61 1006.8
20260831132503 91 184 6.0 10.0 0.00 0.00 0.00 62 1006.6
20260831132003 91 184 7.0 13.0 0.00 0.00 0.00 61 1006.7
20260831131503 91 184 6.0 11.0 0.00 0.00 0.00 61 1006.9
20260831131004 91 179 7.0 11.0 0.00 0.00 0.00 62 1007.0
20260831130503 91 179 5.0 11.0 0.00 0.00 0.00 61 1007.0
20260831130003 91 171 6.0 13.0 0.00 0.00 0.00 62 1007.1
20260831125503 90 176 7.0 12.0 0.00 0.00 0.00 61 1007.1
20260831125003 91 180 7.0 13.0 0.00 0.00 0.00 61 1007.2
20260831124505 91 163 6.0 11.0 0.00 0.00 0.00 61 1007.3
20260831124003 90 181 7.0 12.0 0.00 0.00 0.00 60 1007.3
20260831123503 91 187 7.0 11.0 0.00 0.00 0.00 60 1007.3
20260831123003 91 196 6.0 11.0 0.00 0.00 0.00 61 1007.3
20260831122503 91 183 6.0 10.0 0.00 0.00 0.00 60 1007.4
20260831122003 91 185 5.0 9.0 0.00 0.00 0.00 60 1007.4
20260831121503 91 177 6.0 13.0 0.00 0.00 0.00 60 1007.3
20260831121003 92 181 5.0 10.0 0.00 0.00 0.00 59 1007.3
20260831120503 92 180 5.0 8.0 0.00 0.00 0.00 59 1007.4
20260831120003 92 193 5.0 10.0 0.00 0.00 0.00 59 1007.4
20260831115503 92 197 5.0 10.0 0.00 0.00 0.00 58 1007.4
20260831115003 92 197 5.0 10.0 0.00 0.00 0.00 59 1007.6
20260831114503 91 202 6.0 11.0 0.00 0.00 0.00 58 1007.7
20260831114003 90 202 7.0 11.0 0.00 0.00 0.00 59 1007.6
20260831113503 90 203 7.0 11.0 0.00 0.00 0.00 60 1007.7
20260831113003 90 202 7.0 11.0 0.00 0.00 0.00 60 1007.6
20260831112503 90 206 7.0 11.0 0.00 0.00 0.00 59 1007.6
20260831112003 90 200 5.0 10.0 0.00 0.00 0.00 60 1007.7
20260831111503 91 207 5.0 10.0 0.00 0.00 0.00 59 1007.7
20260831111003 91 199 5.0 10.0 0.00 0.00 0.00 60 1007.6
20260831110503 91 199 5.0 9.0 0.00 0.00 0.00 60 1007.7
20260831110003 91 197 4.0 7.0 0.00 0.00 0.00 59 1007.7
20260831105503 90 215 6.0 9.0 0.00 0.00 0.00 60 1007.8
20260831105003 90 207 7.0 11.0 0.00 0.00 0.00 60 1007.9
20260831104503 91 205 5.0 8.0 0.00 0.00 0.00 59 1007.9
20260831104003 91 203 4.0 9.0 0.00 0.00 0.00 59 1007.9
20260831103503 90 209 5.0 9.0 0.00 0.00 0.00 60 1008.0
20260831103003 90 213 6.0 11.0 0.00 0.00 0.00 60 1008.0
20260831102503 90 206 6.0 11.0 0.00 0.00 0.00 60 1008.2
20260831102003 90 207 7.0 11.0 0.00 0.00 0.00 60 1008.0
20260831101503 91 212 4.0 9.0 0.00 0.00 0.00 59 1008.0
20260831101003 91 217 4.0 9.0 0.00 0.00 0.00 59 1008.1
20260831100503 90 206 3.0 8.0 0.00 0.00 0.00 61 1008.1
20260831100003 90 207 4.0 11.0 0.00 0.00 0.00 61 1008.2
20260831095503 90 203 4.0 7.0 0.00 0.00 0.00 61 1008.0
20260831095003 89 202 5.0 12.0 0.00 0.00 0.00 62 1008.1
20260831094503 88 213 8.0 13.0 0.00 0.00 0.00 62 1008.0
20260831094003 89 206 7.0 12.0 0.00 0.00 0.00 60 1008.1
20260831093503 90 205 5.0 11.0 0.00 0.00 0.00 60 1008.2
20260831093003 90 201 3.0 9.0 0.00 0.00 0.00 60 1008.1
20260831092503 90 205 4.0 11.0 0.00 0.00 0.00 61 1008.2
20260831092003 89 220 5.0 9.0 0.00 0.00 0.00 61 1008.2
20260831091503 89 212 6.0 10.0 0.00 0.00 0.00 61 1008.3
20260831091003 89 221 3.0 7.0 0.00 0.00 0.00 61 1008.3
20260831090503 89 205 4.0 9.0 0.00 0.00 0.00 62 1008.3
20260831090003 89 199 4.0 9.0 0.00 0.00 0.00 61 1008.3
20260831085503 89 229 4.0 8.0 0.00 0.00 0.00 61 1008.3
20260831085003 89 209 4.0 11.0 0.00 0.00 0.00 62 1008.4
20260831084503 89 208 5.0 9.0 0.00 0.00 0.00 62 1008.3
20260831084003 89 206 3.0 6.0 0.00 0.00 0.00 62 1008.3
20260831083503 88 211 5.0 12.0 0.00 0.00 0.00 62 1008.3
20260831083003 89 221 4.0 7.0 0.00 0.00 0.00 62 1008.3
20260831082503 89 215 4.0 9.0 0.00 0.00 0.00 62 1008.4
20260831082003 89 220 4.0 7.0 0.00 0.00 0.00 63 1008.3
20260831081503 88 256 3.0 6.0 0.00 0.00 0.00 62 1008.2
20260831081003 88 218 3.0 9.0 0.00 0.00 0.00 63 1008.2
20260831080503 88 258 2.0 6.0 0.00 0.00 0.00 63 1008.3
20260831080003 88 230 3.0 7.0 0.00 0.00 0.00 63 1008.3
20260831075503 88 224 3.0 7.0 0.00 0.00 0.00 63 1008.2
20260831075003 88 228 3.0 9.0 0.00 0.00 0.00 63 1008.1
20260831074503 88 231 3.0 5.0 0.00 0.00 0.00 63 1008.0
20260831074003 87 248 1.0 5.0 0.00 0.00 0.00 63 1007.9
20260831073503 87 217 2.0 5.0 0.00 0.00 0.00 63 1008.0
20260831073003 87 235 2.0 7.0 0.00 0.00 0.00 64 1008.0
20260831072503 87 272 3.0 7.0 0.00 0.00 0.00 63 1007.9
20260831072003 87 3 4.0 8.0 0.00 0.00 0.00 64 1007.8
20260831071503 86 267 3.0 6.0 0.00 0.00 0.00 64 1007.9
20260831071003 86 320 2.0 6.0 0.00 0.00 0.00 64 1007.9
20260831070503 86 241 2.0 5.0 0.00 0.00 0.00 64 1007.9
20260831070004 86 312 3.0 8.0 0.00 0.00 0.00 64 1007.9
20260831065503 85 267 2.0 6.0 0.00 0.00 0.00 65 1008.0
20260831065003 85 240 2.0 6.0 0.00 0.00 0.00 65 1007.9
20260831064503 85 326 2.0 6.0 0.00 0.00 0.00 65 1008.0
20260831064003 85 308 2.0 7.0 0.00 0.00 0.00 65 1007.9
20260831063503 85 264 2.0 5.0 0.00 0.00 0.00 65 1007.8
20260831063003 85 289 2.0 5.0 0.00 0.00 0.00 65 1008.0
20260831062503 84 321 2.0 5.0 0.00 0.00 0.00 65 1008.0
20260831062003 84 313 3.0 5.0 0.00 0.00 0.00 65 1007.9
20260831061503 84 267 2.0 5.0 0.00 0.00 0.00 65 1008.0
20260831061003 84 285 2.0 6.0 0.00 0.00 0.00 66 1008.1
20260831060503 84 313 2.0 6.0 0.00 0.00 0.00 66 1007.9
20260831060003 84 286 1.0 4.0 0.00 0.00 0.00 66 1007.8
20260831055503 83 311 2.0 6.0 0.00 0.00 0.00 66 1007.8
20260831055003 83 291 2.0 6.0 0.00 0.00 0.00 66 1007.9
20260831054503 83 306 3.0 9.0 0.00 0.00 0.00 66 1007.9
20260831054003 83 305 2.0 6.0 0.00 0.00 0.00 66 1008.0
20260831053503 83 295 1.0 4.0 0.00 0.00 0.00 66 1007.9
20260831053003 82 305 1.0 3.0 0.00 0.00 0.00 66 1007.9
20260831052503 82 276 1.0 2.0 0.00 0.00 0.00 67 1007.8
20260831052003 82 278 1.0 3.0 0.00 0.00 0.00 67 1007.8
20260831051503 82 269 2.0 5.0 0.00 0.00 0.00 67 1007.9
20260831051003 82 275 0.0 3.0 0.00 0.00 0.00 67 1007.9
20260831050503 82 280 1.0 4.0 0.00 0.00 0.00 67 1007.8
20260831050003 81 286 1.0 4.0 0.00 0.00 0.00 67 1007.8
20260831045503 81 275 2.0 6.0 0.00 0.00 0.00 67 1007.8
20260831045003 81 272 2.0 5.0 0.00 0.00 0.00 67 1007.7
20260831044503 81 297 1.0 5.0 0.00 0.00 0.00 67 1007.6
20260831044003 81 317 2.0 6.0 0.00 0.00 0.00 67 1007.8
20260831043503 81 311 1.0 5.0 0.00 0.00 0.00 67 1007.6
20260831043003 81 308 1.0 4.0 0.00 0.00 0.00 67 1007.6
20260831042503 81 271 1.0 3.0 0.00 0.00 0.00 67 1007.6
20260831042003 81 275 2.0 3.0 0.00 0.00 0.00 67 1007.7
20260831041503 81 260 1.0 2.0 0.00 0.00 0.00 67 1007.6
20260831041003 81 272 1.0 3.0 0.00 0.00 0.00 67 1007.7
20260831040503 82 269 1.0 4.0 0.00 0.00 0.00 67 1007.6
20260831040003 82 276 1.0 3.0 0.00 0.00 0.00 67 1007.6
20260831035503 82 268 0.0 2.0 0.00 0.00 0.00 67 1007.6
20260831035003 82 268 0.0 2.0 0.00 0.00 0.00 66 1007.6
20260831034503 82 249 1.0 3.0 0.00 0.00 0.00 66 1007.5
20260831034003 82 271 1.0 4.0 0.00 0.00 0.00 67 1007.6
20260831033503 82 278 1.0 5.0 0.00 0.00 0.00 66 1007.6
20260831033003 82 325 1.0 5.0 0.00 0.00 0.00 66 1007.5
20260831032503 82 296 3.0 8.0 0.00 0.00 0.00 67 1007.4
20260831032003 82 290 2.0 6.0 0.00 0.00 0.00 67 1007.5
20260831031503 82 274 2.0 6.0 0.00 0.00 0.00 66 1007.4
20260831031003 82 269 3.0 6.0 0.00 0.00 0.00 66 1007.5
20260831030503 82 263 3.0 7.0 0.00 0.00 0.00 66 1007.5
20260831030003 82 264 2.0 7.0 0.00 0.00 0.00 66 1007.4
20260831025503 82 272 2.0 6.0 0.00 0.00 0.00 66 1007.4
20260831025003 82 270 3.0 8.0 0.00 0.00 0.00 66 1007.4
20260831024503 82 266 3.0 6.0 0.00 0.00 0.00 66 1007.3
20260831024003 82 275 3.0 8.0 0.00 0.00 0.00 65 1007.2
20260831023503 82 279 2.0 6.0 0.00 0.00 0.00 65 1007.3
20260831023003 82 282 2.0 7.0 0.00 0.00 0.00 65 1007.2
20260831022503 82 273 3.0 7.0 0.00 0.00 0.00 65 1007.2
20260831022003 82 266 3.0 8.0 0.00 0.00 0.00 65 1007.2
20260831021503 82 271 4.0 10.0 0.00 0.00 0.00 65 1007.2
20260831021003 82 283 4.0 8.0 0.00 0.00 0.00 64 1007.1
20260831020503 83 274 4.0 9.0 0.00 0.00 0.00 64 1007.5
20260831020003 83 258 3.0 6.0 0.00 0.00 0.00 64 1007.4
20260831015503 83 265 3.0 6.0 0.00 0.00 0.00 64 1007.4
20260831015003 83 269 4.0 9.0 0.00 0.00 0.00 64 1007.3
20260831014503 83 268 3.0 7.0 0.00 0.00 0.00 64 1007.3
20260831014003 83 269 3.0 7.0 0.00 0.00 0.00 64 1007.4
20260831013503 83 267 3.0 6.0 0.00 0.00 0.00 64 1007.2
20260831013003 83 274 5.0 12.0 0.00 0.00 0.00 64 1007.1
20260831012503 83 273 3.0 8.0 0.00 0.00 0.00 64 1007.1
20260831012003 83 283 2.0 6.0 0.00 0.00 0.00 64 1007.1
20260831011503 83 270 3.0 9.0 0.00 0.00 0.00 64 1007.0
20260831011003 83 277 2.0 8.0 0.00 0.00 0.00 64 1007.0
20260831010503 83 313 2.0 8.0 0.00 0.00 0.00 64 1007.1
20260831010003 83 289 2.0 5.0 0.00 0.00 0.00 64 1007.1
20260831005503 83 283 2.0 5.0 0.00 0.00 0.00 64 1007.2
20260831005003 83 289 2.0 7.0 0.00 0.00 0.00 64 1007.0
20260831004503 83 291 2.0 9.0 0.00 0.00 0.00 64 1007.0
20260831004003 83 281 2.0 5.0 0.00 0.00 0.00 64 1007.1
20260831003503 83 292 2.0 7.0 0.00 0.00 0.00 64 1007.0
20260831003003 83 275 3.0 8.0 0.00 0.00 0.00 65 1006.9
20260831002503 83 289 3.0 8.0 0.00 0.00 0.00 65 1007.1
20260831002003 83 314 3.0 8.0 0.00 0.00 0.00 65 1007.0
20260831001503 83 290 3.0 8.0 0.00 0.00 0.00 65 1007.1
20260831001003 83 266 4.0 8.0 0.00 0.00 0.00 65 1007.1
20260831000503 83 276 3.0 7.0 0.00 0.00 0.00 65 1006.9
20260831000003 83 267 3.0 7.0 0.00 0.00 0.00 65 1007.0
20260830235503 83 267 3.0 6.0 0.00 0.00 0.00 65 1006.9
20260830235003 83 272 2.0 6.0 0.00 0.00 0.00 65 1006.8
20260830234503 83 262 2.0 5.0 0.00 0.00 0.00 65 1006.8
20260830234003 83 262 2.0 4.0 0.00 0.00 0.00 65 1006.8
20260830233503 83 255 2.0 4.0 0.00 0.00 0.00 65 1006.9
20260830233003 84 243 2.0 5.0 0.00 0.00 0.00 65 1006.9
20260830232503 84 242 1.0 4.0 0.00 0.00 0.00 65 1006.7
20260830232003 84 235 1.0 4.0 0.00 0.00 0.00 65 1006.7
20260830231503 84 211 2.0 3.0 0.00 0.00 0.00 65 1006.7
20260830231003 84 224 2.0 6.0 0.00 0.00 0.00 65 1006.7
20260830230503 84 213 2.0 5.0 0.00 0.00 0.00 65 1006.7
20260830230003 84 239 2.0 5.0 0.00 0.00 0.00 65 1006.7
20260830225503 84 249 2.0 7.0 0.00 0.00 0.00 65 1006.7
20260830225003 84 252 2.0 5.0 0.00 0.00 0.00 65 1006.7
20260830224503 84 257 2.0 5.0 0.00 0.00 0.00 65 1006.7
20260830224003 84 230 3.0 5.0 0.00 0.00 0.00 65 1006.7
20260830223503 84 218 3.0 6.0 0.00 0.00 0.00 65 1006.7
20260830223003 84 215 3.0 9.0 0.00 0.00 0.00 66 1006.7
20260830222503 84 216 3.0 7.0 0.00 0.00 0.00 66 1006.7
20260830222003 84 220 4.0 9.0 0.00 0.00 0.00 66 1006.6
20260830221503 85 224 5.0 10.0 0.00 0.00 0.00 66 1006.7
20260830221003 85 214 4.0 8.0 0.00 0.00 0.00 66 1006.7
20260830220503 85 213 3.0 5.0 0.00 0.00 0.00 67 1006.8
20260830220005 85 214 3.0 6.0 0.00 0.00 0.00 67 1006.7
20260830215503 86 215 2.0 4.0 0.00 0.00 0.00 67 1006.7
20260830215003 86 229 3.0 6.0 0.00 0.00 0.00 67 1006.7
20260830214503 86 241 2.0 6.0 0.00 0.00 0.00 66 1006.7
20260830214003 86 224 1.0 3.0 0.00 0.00 0.00 65 1006.8
20260830213503 86 222 2.0 5.0 0.00 0.00 0.00 65 1006.7
20260830213003 86 208 2.0 4.0 0.00 0.00 0.00 65 1006.6
20260830212503 86 227 1.0 3.0 0.00 0.00 0.00 65 1006.6
20260830212003 86 287 0.0 5.0 0.00 0.00 0.00 65 1006.5
20260830211503 86 337 0.0 2.0 0.00 0.00 0.00 65 1006.7
20260830211003 85 60 0.0 1.0 0.00 0.00 0.00 65 1006.7
20260830210503 86 0 0.0 0.0 0.00 0.00 0.00 65 1006.6
20260830210003 86 157 0.0 2.0 0.00 0.00 0.00 65 1006.7
20260830205503 86 156 0.0 2.0 0.00 0.00 0.00 65 1006.6
20260830205003 86 180 0.0 1.0 0.00 0.00 0.00 66 1006.6
20260830204503 86 180 0.0 2.0 0.00 0.00 0.00 66 1006.6
20260830204003 85 170 1.0 3.0 0.00 0.00 0.00 66 1006.6
20260830203503 85 157 0.0 1.0 0.00 0.00 0.00 66 1006.7
20260830203003 85 168 0.0 3.0 0.00 0.00 0.00 66 1006.7
20260830202503 85 155 0.0 3.0 0.00 0.00 0.00 66 1006.6
20260830202003 85 136 1.0 3.0 0.00 0.00 0.00 67 1006.7
20260830201503 85 100 0.0 2.0 0.00 0.00 0.00 66 1006.7
20260830201003 85 116 0.0 2.0 0.00 0.00 0.00 66 1006.6
20260830200503 85 138 1.0 3.0 0.00 0.00 0.00 66 1006.5
20260830200003 85 126 1.0 4.0 0.00 0.00 0.00 66 1006.4
20260830195503 85 120 1.0 4.0 0.00 0.00 0.00 66 1006.6
20260830195003 85 128 2.0 4.0 0.00 0.00 0.00 66 1006.6
20260830194503 85 136 2.0 5.0 0.00 0.00 0.00 66 1006.6
20260830194003 85 143 3.0 7.0 0.00 0.00 0.00 66 1006.6
20260830193503 85 147 3.0 6.0 0.00 0.00 0.00 66 1006.6
20260830193003 85 161 3.0 7.0 0.00 0.00 0.00 66 1006.7
20260830192503 85 149 3.0 7.0 0.00 0.00 0.00 66 1006.6
20260830192003 85 155 3.0 9.0 0.00 0.00 0.00 66 1006.6
20260830191503 85 150 3.0 7.0 0.00 0.00 0.00 66 1006.7
20260830191003 85 113 2.0 5.0 0.00 0.00 0.00 66 1006.6
20260830190503 85 107 2.0 6.0 0.00 0.00 0.00 66 1006.7
20260830190003 85 123 3.0 8.0 0.00 0.00 0.00 66 1006.7
20260830185503 85 119 3.0 6.0 0.00 0.00 0.00 66 1006.6
20260830185003 85 140 4.0 7.0 0.00 0.00 0.00 67 1006.5
20260830184503 85 128 3.0 10.0 0.00 0.00 0.00 67 1006.4
20260830184003 85 114 3.0 8.0 0.00 0.00 0.00 67 1006.3
20260830183503 85 117 3.0 6.0 0.00 0.00 0.00 67 1006.2
20260830183006 85 132 4.0 10.0 0.00 0.00 0.00 67 1006.2
20260830182503 85 141 4.0 8.0 0.00 0.00 0.00 67 1006.0
20260830182003 85 144 3.0 9.0 0.00 0.00 0.00 67 1006.0
20260830181503 85 147 4.0 11.0 0.00 0.00 0.00 67 1005.8
20260830181003 85 126 4.0 11.0 0.00 0.00 0.00 67 1006.0
20260830180503 85 127 3.0 9.0 0.00 0.00 0.00 67 1005.9
20260830180003 85 133 4.0 11.0 0.00 0.00 0.00 67 1006.0
20260830175503 86 120 3.0 7.0 0.00 0.00 0.00 67 1005.9
20260830175003 85 139 3.0 8.0 0.00 0.00 0.00 67 1005.8
20260830174503 85 133 4.0 9.0 0.00 0.00 0.00 67 1005.7
20260830174003 86 133 4.0 7.0 0.00 0.00 0.00 67 1005.8
20260830173503 86 135 3.0 8.0 0.00 0.00 0.00 67 1005.8
20260830173003 86 132 4.0 11.0 0.00 0.00 0.00 67 1005.8
20260830172503 86 132 3.0 6.0 0.00 0.00 0.00 67 1005.7
20260830172003 86 130 4.0 10.0 0.00 0.00 0.00 67 1005.7
20260830171503 86 145 4.0 8.0 0.00 0.00 0.00 67 1005.7
20260830171003 86 128 5.0 11.0 0.00 0.00 0.00 67 1005.6
20260830170503 86 144 6.0 12.0 0.00 0.00 0.00 67 1005.6
20260830170003 86 118 4.0 10.0 0.00 0.00 0.00 67 1005.7
20260830165503 86 121 4.0 12.0 0.00 0.00 0.00 67 1005.6
20260830165003 86 133 4.0 9.0 0.00 0.00 0.00 67 1005.8
20260830164503 87 133 4.0 13.0 0.00 0.00 0.00 67 1005.7
20260830164003 87 144 6.0 12.0 0.00 0.00 0.00 67 1005.8
20260830163503 87 141 5.0 10.0 0.00 0.00 0.00 67 1005.9
20260830163003 87 146 6.0 12.0 0.00 0.00 0.00 67 1005.8
20260830162503 87 138 5.0 11.0 0.00 0.00 0.00 67 1006.0
20260830162003 87 151 6.0 13.0 0.00 0.00 0.00 67 1006.0
20260830161503 87 139 6.0 13.0 0.00 0.00 0.00 67 1006.0
20260830161004 87 133 5.0 11.0 0.00 0.00 0.00 66 1006.0
20260830160503 88 147 5.0 12.0 0.00 0.00 0.00 66 1006.0
20260830160003 88 148 5.0 13.0 0.00 0.00 0.00 66 1006.1
20260830155503 88 144 6.0 15.0 0.00 0.00 0.00 66 1006.0
20260830155003 88 149 6.0 13.0 0.00 0.00 0.00 66 1006.0
20260830154503 88 144 5.0 12.0 0.00 0.00 0.00 66 1006.2
20260830154003 89 129 5.0 10.0 0.00 0.00 0.00 66 1006.3
20260830153503 89 143 5.0 14.0 0.00 0.00 0.00 65 1006.2
20260830153003 89 138 5.0 11.0 0.00 0.00 0.00 65 1006.3
20260830152503 89 156 5.0 10.0 0.00 0.00 0.00 65 1006.3
20260830152004 89 147 5.0 11.0 0.00 0.00 0.00 65 1006.3
20260830151503 89 141 5.0 14.0 0.00 0.00 0.00 65 1006.3
20260830151003 89 141 5.0 12.0 0.00 0.00 0.00 65 1006.3
20260830150503 89 145 5.0 13.0 0.00 0.00 0.00 65 1006.3
20260830150003 89 149 6.0 12.0 0.00 0.00 0.00 65 1006.4
20260830145503 90 134 5.0 14.0 0.00 0.00 0.00 64 1006.3
20260830145003 90 144 7.0 15.0 0.00 0.00 0.00 64 1006.5
20260830144503 90 158 5.0 14.0 0.00 0.00 0.00 64 1006.4
20260830144003 90 140 6.0 14.0 0.00 0.00 0.00 63 1006.5
20260830143503 90 135 7.0 15.0 0.00 0.00 0.00 63 1006.6
20260830143003 90 150 6.0 12.0 0.00 0.00 0.00 62 1006.6